Overview Statistics Trail Chart Weather Telemetry Raw packets
 

This is the latest recevied weather packets stored in our database for station/object N1HQ. If no packets are shown the sender has not sent any weather packets the latest 10 day(s).

<< 118 119 120 121 122 123 124 >>
Time Temp. Humidity Pressure Rain* Wind** Luminosity Snow
1787774322 31.67° C 82% 1012.8 hPa 0 mm - - -
1787774045 31.67° C 84% 1013 hPa 0 mm - - -
1787773780 31.67° C 83% 1013.1 hPa 0 mm - - -
1787773538 31.11° C 83% 1012.9 hPa 0 mm - - -
1787773243 31.11° C 82% 1012.7 hPa 0 mm - - -
1787772979 31.11° C 83% 1012.8 hPa 0 mm - - -
1787772738 31.67° C 83% 1012.9 hPa 0 mm - - -
1787772491 31.67° C 81% 1012.9 hPa 0 mm - - -
1787772231 32.22° C 83% 1012.9 hPa 0 mm - - -
1787771990 31.67° C 81% 1013 hPa 0 mm - - -
1787771722 31.67° C 82% 1012.9 hPa 0 mm - - -
1787771428 32.22° C 82% 1012.9 hPa 0 mm - - -
1787771178 31.67° C 83% 1013.1 hPa 0 mm - - -
1787770903 31.67° C 82% 1013.3 hPa 0 mm - - -
1787770643 31.67° C 83% 1013.2 hPa 0 mm - - -
1787770350 31.67° C 80% 1013.1 hPa 0 mm - - -
1787770108 31.67° C 79% 1013.2 hPa 0 mm - - -
1787769863 32.22° C 83% 1013.1 hPa 0 mm - - -
1787769590 32.22° C 80% 1013.3 hPa 0 mm - - -
1787769338 32.22° C 80% 1013.5 hPa 0 mm - - -
1787769098 32.22° C 80% 1013.5 hPa 0 mm - - -
1787768798 31.67° C 82% 1013.6 hPa 0 mm - - -
1787768518 32.22° C 81% 1013.6 hPa 0 mm - - -
1787768248 31.67° C 81% 1013.6 hPa 0 mm - - -
1787767977 31.67° C 81% 1013.6 hPa 0 mm - - -

* Rain latest hour (hover to see other rain measurements)
** Current wind speed in m/s (hover to see current wind gust speed)